Location: Coleto Creek Park and Reservoir
(28.7196°N, 97.1740°W)
Time: 16:38:48
(UTC-05:00)

HST - Visible Passes

Search period start: 24 July 2014 00:00
Search period end: 03 August 2014 00:00
Orbit: 548 x 552 km, 28.5° (Epoch: 24 July)

Date Brightness Start Highest point End Pass type
(mag) Time Alt. Az. Time Alt. Az. Time Alt. Az.
24 Jul 0.7 21:39:45 10° W 21:43:57 85° S 21:45:57 30° E visible
24 Jul 3.7 23:21:18 10° W 23:21:30 11° W 23:21:30 11° W visible
25 Jul 0.7 21:32:58 10° W 21:37:10 79° S 21:39:21 27° ESE visible
25 Jul 3.6 23:14:36 10° W 23:14:55 12° W 23:14:55 12° W visible
26 Jul 0.8 21:26:11 10° W 21:30:21 70° S 21:32:45 24° ESE visible
26 Jul 3.6 23:07:58 10° W 23:08:18 12° W 23:08:18 12° W visible
27 Jul 1.0 21:19:25 10° W 21:23:32 60° SSW 21:26:08 21° ESE visible
27 Jul 3.6 23:01:26 10° WSW 23:01:42 11° WSW 23:01:42 11° WSW visible
28 Jul 1.2 21:12:39 10° W 21:16:43 50° SSW 21:19:33 18° SE visible
28 Jul 3.6 22:55:06 10° WSW 22:55:06 10° WSW 22:55:06 10° WSW visible
29 Jul 1.6 21:05:56 10° W 21:09:52 40° SSW 21:12:59 15° SE visible
30 Jul 2.0 20:59:16 10° W 21:03:00 31° SSW 21:06:27 12° SE visible
31 Jul 2.4 20:52:41 10° WSW 20:56:07 25° SSW 20:59:32 10° SSE visible
01 Aug 2.8 20:46:14 10° WSW 20:49:12 19° SSW 20:52:11 10° SSE visible
02 Aug 3.2 20:40:04 10° WSW 20:42:17 14° SSW 20:44:31 10° S visible
